Find Starlink 34451

NORAD ID: 64433 Int'l Des: 2025-129 Owner: SPXS Country: US Constellation: starlink operational
LEOCIRCULAR

Live Position

Loading 3D Globe...

About Starlink 34451

Description loading...

Upcoming Passes

Passes for default location (London). Set your location on the main map for personalized predictions.

Altitude History

Loading altitude history...

Two-Line Element Set

1 64433U 25129X 26104.87397818 .00680362 00000-0 50531-1 0 9993
2 64433 70.0058 343.3678 0011715 253.5572 106.4301 15.00252505 46640
Epoch: Apr 14, 2026 • Age: 7 hours

Current Status

Altitude 570.7 km
Velocity 7.58 km/s
Sub-Earth Point 30.99°N, 113.69°W
Launch Date Jun 17, 2025
Age 0.8 years
Type internet

Technical Details

Classification Payload
Mass 575.00 kg
Dry Mass 530.00 kg
Total Mass 575.00 kg
Length 0.30 m
Diameter 4.10 m
Span 29.00 m
Shape Box + pan
Manufacturer SPXS
Bus Type Starlink V2MO
Phase Status In Orbit
Owner/State SPXS/US

Most Searched